Find Starlink 30859

NORAD ID: 58371 Int'l Des: 2023-177 Owner: SPXS Country: US Constellation: starlink operational
LEOCIRCULAR

当前视图

正在加载3D地球...

About Starlink 30859

Starlink 30859 (NORAD 58371) is a starlink constellation satellite (v2 mini) launched Nov 18, 2023 by SPXS of US. It operates in LEO, CIRCULAR orbit with a mass of 730.00 kg.

关于 Starlink 30859

正在加载描述...

即将过境

Passes for default location (London). Set your location on the main map for personalized predictions.

高度历史

Loading altitude history...

两行轨道根数

1 58371U 23177W 26171.28416582 -.00000284 00000-0 -80717-6 0 9992
2 58371 43.0036 131.5357 0001510 264.4877 95.5803 15.27568650143926
Epoch: Jun 20, 2026 • Age: 50 hours

当前状态

高度 482.4 km
速度 7.63 km/s
星下点 3.88°N, 77.37°E
发射日期 Nov 18, 2023
运行时间 2.5 years
类型 internet

技术详情

分类 Payload
质量 730.00 kg
干质量 700.00 kg
总质量 730.00 kg
长度 0.30 m
直径 4.10 m
跨度 29.00 m
形状 Box + pan
制造商 SPXS
平台类型 Starlink V2M
阶段状态 In Orbit
所有者/国家 SPXS/US

Most Searched